TimeCST,TemperatureF,Dew PointF,Humidity,Sea Level PressureIn,VisibilityMPH,Wind Direction,Wind SpeedMPH,Gust SpeedMPH,PrecipitationIn,Events,Conditions,WindDirDegrees,DateUTC
12:15 AM,11.8,5.2,75,30.26,10.0,North,9.2,16.1,N/A,,Overcast,360,2012-12-25 06:15:00
12:35 AM,11.1,5.4,78,30.27,10.0,North,11.5,16.1,N/A,,Overcast,360,2012-12-25 06:35:00
12:55 AM,10.2,3.7,75,30.27,10.0,North,11.5,18.4,N/A,,Overcast,360,2012-12-25 06:55:00
1:15 AM,9.5,3.2,76,30.27,10.0,North,8.1,16.1,N/A,,Overcast,360,2012-12-25 07:15:00
1:35 AM,9.1,3.2,77,30.27,10.0,North,11.5,17.3,N/A,,Scattered Clouds,360,2012-12-25 07:35:00
1:55 AM,8.6,3.0,78,30.27,10.0,North,10.4,-,N/A,,Clear,360,2012-12-25 07:55:00
2:15 AM,8.2,2.3,77,30.28,10.0,North,10.4,17.3,N/A,,Scattered Clouds,10,2012-12-25 08:15:00
2:35 AM,7.7,2.1,78,30.29,10.0,North,6.9,16.1,N/A,,Mostly Cloudy,10,2012-12-25 08:35:00
2:55 AM,7.2,1.9,79,30.30,10.0,North,6.9,-,N/A,,Scattered Clouds,360,2012-12-25 08:55:00
3:15 AM,6.6,1.4,79,30.30,10.0,North,8.1,-,N/A,,Clear,360,2012-12-25 09:15:00
3:35 AM,5.7,0.3,78,30.31,10.0,North,10.4,18.4,N/A,,Clear,10,2012-12-25 09:35:00
3:55 AM,5.0,0.1,80,30.32,10.0,North,8.1,-,N/A,,Clear,10,2012-12-25 09:55:00
4:15 AM,4.8,-0.4,79,30.32,10.0,North,8.1,-,N/A,,Clear,360,2012-12-25 10:15:00
4:35 AM,4.6,-0.2,80,30.33,10.0,North,8.1,-,N/A,,Clear,360,2012-12-25 10:35:00
4:55 AM,4.5,-0.4,80,30.33,10.0,North,5.8,-,N/A,,Clear,350,2012-12-25 10:55:00
5:15 AM,4.1,-0.4,82,30.33,10.0,North,5.8,-,N/A,,Clear,350,2012-12-25 11:15:00
5:35 AM,4.1,-0.4,82,30.34,10.0,Calm,Calm,-,N/A,,Clear,0,2012-12-25 11:35:00
5:55 AM,3.9,-0.4,82,30.35,10.0,NNW,5.8,-,N/A,,Clear,330,2012-12-25 11:55:00
6:15 AM,3.9,-0.4,82,30.36,10.0,NNW,5.8,-,N/A,,Clear,340,2012-12-25 12:15:00
6:35 AM,3.9,-0.4,82,30.36,10.0,NNW,6.9,-,N/A,,Clear,340,2012-12-25 12:35:00
6:55 AM,3.9,-0.4,82,30.38,10.0,NNW,8.1,-,N/A,,Clear,330,2012-12-25 12:55:00
7:15 AM,4.1,-0.4,82,30.39,10.0,NNW,8.1,-,N/A,,Clear,340,2012-12-25 13:15:00
7:35 AM,4.5,-0.0,82,30.41,10.0,NNW,5.8,-,N/A,,Scattered Clouds,340,2012-12-25 13:35:00
7:55 AM,4.5,0.1,82,30.42,10.0,NNW,6.9,-,N/A,,Mostly Cloudy,340,2012-12-25 13:55:00
8:15 AM,4.5,-0.0,82,30.42,10.0,NNW,6.9,-,N/A,,Scattered Clouds,340,2012-12-25 14:15:00
8:35 AM,4.5,0.1,82,30.42,10.0,NNW,6.9,-,N/A,,Clear,330,2012-12-25 14:35:00
8:55 AM,4.5,-0.0,82,30.43,10.0,NNW,8.1,-,N/A,,Clear,330,2012-12-25 14:55:00
9:15 AM,4.6,0.1,82,30.44,10.0,NNW,11.5,-,N/A,,Clear,330,2012-12-25 15:15:00
9:35 AM,4.8,-0.2,80,30.45,10.0,NNW,10.4,16.1,N/A,,Clear,340,2012-12-25 15:35:00
9:55 AM,5.0,0.1,80,30.47,10.0,NNW,9.2,-,N/A,,Clear,340,2012-12-25 15:55:00
10:15 AM,5.7,0.5,79,30.48,10.0,North,6.9,-,N/A,,Clear,350,2012-12-25 16:15:00
10:35 AM,6.3,1.0,79,30.48,10.0,North,5.8,-,N/A,,Clear,360,2012-12-25 16:35:00
10:55 AM,7.2,1.6,78,30.48,10.0,North,9.2,-,N/A,,Scattered Clouds,350,2012-12-25 16:55:00
11:15 AM,7.5,1.9,78,30.48,10.0,North,8.1,-,N/A,,Mostly Cloudy,350,2012-12-25 17:15:00
11:35 AM,7.7,2.1,78,30.48,10.0,North,6.9,-,N/A,,Scattered Clouds,350,2012-12-25 17:35:00
11:55 AM,8.6,3.0,78,30.45,10.0,North,8.1,-,N/A,,Clear,350,2012-12-25 17:55:00
12:15 PM,9.3,3.6,77,30.43,10.0,North,9.2,-,N/A,,Clear,360,2012-12-25 18:15:00
12:35 PM,10.2,4.3,77,30.41,10.0,North,9.2,17.3,N/A,,Clear,360,2012-12-25 18:35:00
12:55 PM,10.6,4.6,77,30.38,10.0,North,13.8,20.7,N/A,,Clear,350,2012-12-25 18:55:00
1:15 PM,11.5,5.5,77,30.37,10.0,North,10.4,16.1,N/A,,Clear,350,2012-12-25 19:15:00
1:35 PM,12.2,5.9,76,30.39,10.0,NNW,11.5,16.1,N/A,,Clear,340,2012-12-25 19:35:00
1:55 PM,12.4,6.6,78,30.38,10.0,North,8.1,16.1,N/A,,Clear,350,2012-12-25 19:55:00
2:15 PM,12.6,5.9,75,30.39,10.0,North,10.4,-,N/A,,Clear,350,2012-12-25 20:15:00
2:35 PM,12.9,6.6,76,30.40,10.0,North,8.1,-,N/A,,Clear,360,2012-12-25 20:35:00
2:55 PM,13.3,7.0,76,30.41,10.0,North,8.1,-,N/A,,Clear,350,2012-12-25 20:55:00
3:15 PM,13.1,7.0,77,30.42,10.0,North,9.2,-,N/A,,Clear,360,2012-12-25 21:15:00
3:35 PM,13.5,7.2,76,30.43,10.0,North,8.1,-,N/A,,Mostly Cloudy,350,2012-12-25 21:35:00
3:55 PM,13.1,7.3,78,30.43,10.0,North,9.2,-,N/A,,Overcast,350,2012-12-25 21:55:00
4:15 PM,12.9,7.2,78,30.43,10.0,NNW,8.1,-,N/A,,Mostly Cloudy,340,2012-12-25 22:15:00
4:35 PM,12.6,6.8,78,30.43,10.0,North,5.8,-,N/A,,Mostly Cloudy,350,2012-12-25 22:35:00
4:55 PM,12.2,6.8,79,30.43,10.0,North,6.9,-,N/A,,Scattered Clouds,350,2012-12-25 22:55:00
5:15 PM,12.2,7.3,81,30.43,10.0,North,6.9,-,N/A,,Clear,350,2012-12-25 23:15:00
5:35 PM,12.0,7.3,81,30.43,10.0,NNW,8.1,-,N/A,,Mostly Cloudy,340,2012-12-25 23:35:00
5:55 PM,12.0,6.8,80,30.42,10.0,NNW,6.9,-,N/A,,Mostly Cloudy,340,2012-12-25 23:55:00
6:15 PM,11.7,6.8,81,30.42,10.0,NNW,6.9,-,N/A,,Mostly Cloudy,340,2012-12-26 00:15:00
6:35 PM,11.5,6.6,81,30.42,10.0,North,8.1,-,N/A,,Scattered Clouds,350,2012-12-26 00:35:00
6:55 PM,11.3,6.4,81,30.40,10.0,North,6.9,-,N/A,,Clear,350,2012-12-26 00:55:00
7:15 PM,10.8,5.9,81,30.40,10.0,North,9.2,-,N/A,,Clear,350,2012-12-26 01:15:00
7:35 PM,10.0,5.5,82,30.39,10.0,North,6.9,-,N/A,,Clear,350,2012-12-26 01:35:00
7:55 PM,9.5,5.4,83,30.39,10.0,North,8.1,-,N/A,,Clear,350,2012-12-26 01:55:00
8:15 PM,9.5,5.5,84,30.39,10.0,North,5.8,-,N/A,,Clear,350,2012-12-26 02:15:00
8:35 PM,9.3,5.4,84,30.37,10.0,North,5.8,-,N/A,,Clear,350,2012-12-26 02:35:00
8:55 PM,8.6,4.8,85,30.37,10.0,NNW,5.8,-,N/A,,Clear,340,2012-12-26 02:55:00
9:15 PM,8.1,4.1,84,30.37,10.0,North,4.6,-,N/A,,Clear,350,2012-12-26 03:15:00
10:15 PM,6.3,3.0,87,30.36,10.0,NNW,4.6,-,N/A,,Clear,330,2012-12-26 04:15:00
10:35 PM,6.3,3.0,87,30.36,10.0,NNW,4.6,-,N/A,,Clear,330,2012-12-26 04:35:00
10:55 PM,5.5,2.3,86,30.35,10.0,NNW,4.6,-,N/A,,Clear,330,2012-12-26 04:55:00
11:15 PM,5.2,2.1,87,30.36,10.0,NW,4.6,-,N/A,,Clear,320,2012-12-26 05:15:00
11:35 PM,5.2,2.1,87,30.36,10.0,NNW,5.8,-,N/A,,Clear,330,2012-12-26 05:35:00
11:55 PM,5.4,2.3,87,30.35,10.0,NNW,4.6,-,N/A,,Clear,330,2012-12-26 05:55:00